Home   Weather   Gambier Islands   Past weeks
Flag for French Polynesia

Past Weather in Gambier Islands, French Polynesia — Yesterday and Last 2 Weeks

Now
74 °F

Mild.


Feels Like: 76 °F
Forecast: 80 / 75 °F
Wind: 7 mph from Southeast

Location: Rikitea

Current Time: Jan 24, 2020 at 5:40:12 am

Latest Report: Jan 24, 2020 at 4:00 am


Visibility: N/A

Pressure: 30.03 "Hg

Humidity: 76%

Dew Point: 66 °F

Location of Gambier IslandsLocation

Past Weather in Gambier Islands — Graph

°F

Gambier Islands Temperature Yesterday

Maximum temperature yesterday: 83 °F (at 12:00 pm)
Minimum temperature yesterday: 73 °F (at 3:00 am)
Average temperature yesterday: 77 °F

High & Low Weather Summary for the Past Weeks

 TemperatureHumidityPressure
High85 °F (Jan 21, 11:00 am)97% (Jan 10, 12:00 pm)30.12 "Hg (Jan 10, 12:00 pm)
Low72 °F (Jan 13, 4:00 am)66% (Jan 11, 12:00 pm)29.84 "Hg (Jan 13, 2:00 am)
Average77 °F82%30.00 "Hg
* Reported Jan 9 4:00 am — Jan 24 4:00 am, Gambier Islands. Weather by CustomWeather, © 2020

Note: Actual official high and low records may vary slightly from our data, if they occured in-between our weather recording intervals... More about our weather records

Gambier Islands Weather History for the Previous 24 Hours

Scroll right to see more
 ConditionsComfort  
Time TempWeatherWind HumidityBarometerVisibility
4:00 am
Fri, Jan 24
74 °FMild.7 mph76%30.03 "HgN/A
3:00 am74 °FMild.3 mph74%30.03 "HgN/A
2:00 am74 °FMild.5 mph73%30.04 "HgN/A
1:00 am75 °FMild.5 mph73%30.07 "HgN/A
12:00 am75 °FMild.5 mph74%30.09 "HgN/A
11:00 pm
Thu, Jan 23
76 °FMild.5 mph77%30.10 "HgN/A
10:00 pm76 °FMild.5 mph79%30.10 "HgN/A
9:00 pm76 °FMild.5 mph79%30.09 "HgN/A
8:00 pm77 °FMild.3 mph80%30.07 "HgN/A
7:00 pm77 °FMild.3 mph83%30.04 "HgN/A
6:00 pm77 °FMild.2 mph84%30.03 "HgN/A
5:00 pm76 °FPartly sunny.5 mph85%30.03 "Hg16 mi
4:00 pm79 °FPartly sunny.6 mph77%30.01 "Hg25 mi
3:00 pm78 °FPassing clouds.6 mph83%30.02 "Hg25 mi
2:00 pm81 °FPassing clouds.5 mph78%30.03 "Hg25 mi
1:00 pm79 °FScattered clouds.9 mph72%30.05 "Hg25 mi
12:00 pm83 °FPassing clouds.3 mph75%30.06 "Hg25 mi
11:00 am83 °FWarm.3 mph75%30.08 "HgN/A
10:00 am82 °FPassing clouds.3 mph77%30.09 "Hg25 mi
9:00 am82 °FPassing clouds.5 mph73%30.10 "Hg19 mi
8:00 am78 °FScattered clouds.5 mph75%30.10 "Hg19 mi
7:00 am79 °FPassing clouds.3 mph81%30.09 "Hg19 mi
6:00 am75 °FScattered clouds.2 mph88%30.08 "Hg19 mi
5:00 am75 °FMild.2 mph89%30.06 "HgN/A
Weather by CustomWeather, © 2020

See weather overview

Advertising